Iliamna, AK

10:23 PM AKDT on June 23, 2017 (GMT -0800)
Iliamna

Weather History for PAIL - March, 2013

Change the Weather History Date:

Sunday, March 10, 2013

  Actual Average Record
Temperature  
Mean Temperature 28 °F -  
Max Temperature 32 °F 31 °F 47 °F (1968)
Min Temperature 24 °F 18 °F -22 °F (1966)
Degree Days  
Heating Degree Days 37    
Moisture  
Dew Point 24 °F    
Average Humidity 88    
Maximum Humidity 100    
Minimum Humidity 62    
Precipitation  
Precipitation 0.55 in - - ()
Snow  
Snow 0.00 in - - ()
Snow Depth 8.00 in    
Sea Level Pressure  
Sea Level Pressure 30.17 in    
Wind  
Wind Speed 7 mph (NE)    
Max Wind Speed 20 mph    
Max Gust Speed 29 mph    
Visibility 5 miles    
Events Fog , Snow    
Averages and records for this station are not official NWS values.
T = Trace of Precipitation, MM = Missing Value Source: NWS Daily Summary

Daily Weather History Graph

Daily Weather History Graph

Search for Another Location

Airport or City:

Trip Planner

Search our weather history database for the weather conditions in past years. The results will help you decide how hot, cold, wet, or windy it might be!

Date:

Astronomy

Mar. 10, 2013 Rise Set
Actual Time 8:49 AM AKDT 8:11 PM AKDT
Civil Twilight 8:08 AM AKDT 8:52 PM AKDT
Nautical Twilight 7:20 AM AKDT 9:40 PM AKDT
Astronomical Twilight 6:30 AM AKDT 10:31 PM AKDT
Moon 8:02 AM AKDT (3/10) 7:31 PM AKDT (3/10)
Length of Visible Light 12h 43m
Length of Day
11h 21m
Waning Crescent, 1% of the Moon is Illuminated
Mar 10
Waning Crescent
Mar 11
New
Mar 19
First Quarter
Mar 27
Full
Apr 2
Last Quarter

Hourly Weather History & Observations

Time (AKDT) Temp. Windchill Dew Point Humidity Pressure Visibility Wind Dir Wind Speed Gust Speed Precip Events Conditions
12:18 AM 24.8 °F - 19.4 °F 80% 30.21 in 10.0 mi Calm Calm - N/A   Overcast
12:53 AM 24.1 °F - 19.9 °F 84% 30.22 in 10.0 mi Calm Calm - N/A   Overcast
1:14 AM 23.0 °F 17.0 °F 21.2 °F 93% 30.20 in 1.8 mi East 4.6 mph - 0.00 in Snow Light Snow
1:34 AM 23.0 °F 18.4 °F 21.2 °F 93% 30.20 in 2.5 mi ENE 3.5 mph - 0.00 in Snow Light Snow
1:41 AM 23.0 °F 17.0 °F 21.2 °F 93% 30.20 in 4.0 mi ENE 4.6 mph - 0.00 in Snow Light Snow
1:53 AM 23.0 °F 17.0 °F 21.9 °F 96% 30.21 in 3.0 mi East 4.6 mph - 0.00 in Snow Light Snow
1:58 AM 24.8 °F 19.1 °F 23.0 °F 93% 30.19 in 1.8 mi East 4.6 mph - 0.00 in Snow Light Snow
4:04 AM 24.8 °F 17.9 °F 24.8 °F 100% 30.17 in 0.8 mi East 5.8 mph - 0.00 in Snow Light Snow
4:21 AM 24.8 °F 17.9 °F 24.8 °F 100% 30.16 in 1.0 mi East 5.8 mph - 0.01 in Snow Light Snow
4:31 AM 24.8 °F 16.1 °F 24.8 °F 100% 30.16 in 0.8 mi East 8.1 mph - 0.02 in Snow Light Snow
4:53 AM 24.1 °F 15.2 °F 24.1 °F 100% 30.16 in 0.8 mi East 8.1 mph - 0.03 in Snow Light Snow
5:53 AM 25.0 °F 15.5 °F 24.1 °F 96% 30.12 in 0.8 mi East 9.2 mph - 0.04 in Snow Light Snow
6:08 AM 24.8 °F 15.3 °F 24.8 °F 100% 30.10 in 1.0 mi East 9.2 mph - 0.01 in Snow Light Snow
6:23 AM 24.8 °F 15.3 °F 24.8 °F 100% 30.09 in 0.8 mi East 9.2 mph - 0.02 in Snow Light Snow
6:53 AM 25.0 °F 14.8 °F 25.0 °F 100% 30.09 in 0.5 mi East 10.4 mph - 0.08 in Fog , Snow Snow
7:43 AM 26.6 °F 19.1 °F 26.6 °F 100% 30.05 in 0.5 mi SE 6.9 mph - 0.10 in Fog , Snow Snow
7:53 AM 26.1 °F 17.6 °F 26.1 °F 100% 30.06 in 0.5 mi East 8.1 mph - 0.13 in Fog , Snow Snow
8:35 AM 26.6 °F 18.2 °F 26.6 °F 100% 30.05 in 0.2 mi ESE 8.1 mph - 0.13 in Fog , Snow Heavy Snow
8:53 AM 26.1 °F 16.8 °F 26.1 °F 100% 30.05 in 0.5 mi East 9.2 mph - 0.22 in Fog , Snow Snow
9:06 AM 26.6 °F 16.8 °F 26.6 °F 100% 30.03 in 1.0 mi East 10.4 mph - 0.02 in Snow Light Snow
9:14 AM 26.6 °F 16.2 °F 26.6 °F 100% 30.03 in 0.5 mi East 11.5 mph - 0.03 in Fog , Snow Snow
9:53 AM 27.0 °F 16.1 °F 27.0 °F 100% 30.03 in 0.8 mi East 12.7 mph - 0.05 in Snow Light Snow
9:57 AM 28.4 °F 16.6 °F 28.4 °F 100% 30.02 in 1.2 mi ENE 16.1 mph 19.6 mph 0.00 in Snow Light Snow
10:08 AM 28.4 °F 21.2 °F 28.4 °F 100% 30.04 in 2.0 mi Variable 6.9 mph 16.1 mph 0.00 in Snow Light Snow
10:18 AM 28.4 °F 20.4 °F 28.4 °F 100% 30.05 in 1.8 mi North 8.1 mph - 0.00 in Snow Light Snow
10:26 AM 28.4 °F 23.3 °F 28.4 °F 100% 30.05 in 1.2 mi NW 4.6 mph - 0.00 in Snow Light Snow
10:38 AM 28.4 °F 21.2 °F 28.4 °F 100% 30.06 in 3.0 mi Variable 6.9 mph - 0.00 in Snow Light Snow
10:53 AM 30.9 °F 20.7 °F 26.1 °F 82% 30.08 in 10.0 mi NNW 13.8 mph 23.0 mph 0.00 in   Overcast
11:01 AM 30.2 °F 18.1 °F 24.8 °F 80% 30.07 in 10.0 mi NNW 18.4 mph 23.0 mph N/A   Overcast
11:53 AM 30.0 °F 17.9 °F 24.1 °F 79% 30.12 in 10.0 mi NW 18.4 mph 25.3 mph N/A   Overcast
12:53 PM 30.0 °F 17.9 °F 23.0 °F 75% 30.16 in 10.0 mi WNW 18.4 mph - N/A   Overcast
1:53 PM 30.9 °F 22.2 °F 23.0 °F 72% 30.19 in 10.0 mi NW 10.4 mph - N/A   Mostly Cloudy
2:53 PM 30.9 °F 20.7 °F 24.1 °F 76% 30.22 in 10.0 mi WNW 13.8 mph 23.0 mph N/A   Mostly Cloudy
3:53 PM 30.9 °F 18.7 °F 23.0 °F 72% 30.23 in 10.0 mi WNW 19.6 mph 27.6 mph N/A   Mostly Cloudy
4:53 PM 30.9 °F 19.1 °F 23.0 °F 72% 30.25 in 10.0 mi WNW 18.4 mph 28.8 mph N/A   Mostly Cloudy
5:53 PM 30.9 °F 19.4 °F 21.9 °F 69% 30.27 in 10.0 mi NW 17.3 mph 26.5 mph N/A   Scattered Clouds
6:53 PM 30.0 °F 22.4 °F 21.9 °F 72% 30.29 in 10.0 mi SW 8.1 mph - N/A   Scattered Clouds
7:53 PM 28.0 °F 18.6 °F 21.0 °F 75% 30.31 in 10.0 mi WNW 10.4 mph - N/A   Mostly Cloudy
8:53 PM 28.0 °F 17.5 °F 19.9 °F 72% 30.33 in 10.0 mi NW 12.7 mph 17.3 mph N/A   Mostly Cloudy
9:53 PM 26.1 °F 19.4 °F 19.0 °F 75% 30.36 in 10.0 mi SW 5.8 mph - N/A   Scattered Clouds
10:53 PM 27.0 °F 14.7 °F 19.0 °F 72% 30.38 in 10.0 mi NNW 16.1 mph - N/A   Scattered Clouds
11:53 PM 26.1 °F 18.4 °F 18.0 °F 71% 30.40 in 10.0 mi NW 6.9 mph - N/A   Scattered Clouds
12:53 AM 25.0 °F 12.6 °F 18.0 °F 75% 30.40 in 10.0 mi NW 15.0 mph - N/A   Clear